Change the Weather History Date:

Monday, November 19, 2012

  Actual Average Record
Temperature  
Mean Temperature 42 °F -  
Max Temperature 50 °F 43 °F 52 °F (2005)
Min Temperature 37 °F 32 °F 19 °F (2000)
Degree Days  
Heating Degree Days 22    
Moisture  
Dew Point 39 °F    
Average Humidity 87    
Maximum Humidity 93    
Minimum Humidity 69    
Precipitation  
Precipitation 0.05 in - - ()
Sea Level Pressure  
Sea Level Pressure 29.99 in    
Wind  
Wind Speed 1 mph (NNW)    
Max Wind Speed 7 mph    
Max Gust Speed -    
Averages and records for this station are not official NWS values.
T = Trace of Precipitation, MM = Missing Value Source: NWS Daily Summary

Daily Weather History Graph

Daily Weather History Graph

Search for Another Location

Airport or City:

Trip Planner

Search our weather history database for the weather conditions in past years. The results will help you decide how hot, cold, wet, or windy it might be!

Date:

Astronomy

Nov. 19, 2012 Rise Set
Actual Time 7:49 AM MST 5:05 PM MST
Civil Twilight 7:16 AM MST 5:38 PM MST
Nautical Twilight 6:39 AM MST 6:15 PM MST
Astronomical Twilight 6:04 AM MST 6:51 PM MST
Moon 12:47 PM MST (11/19) 11:47 PM MST (11/19)
Length of Visible Light 10h 22m
Length of Day
9h 16m
Waxing Crescent, 41% of the Moon is Illuminated
Nov 19
Waxing Crescent
Nov 20
First Quarter
Nov 28
Full
Dec 6
Last Quarter
Dec 13
New

Hourly Weather History & Observations

Time (MST) Temp. Windchill Dew Point Humidity Pressure Visibility Wind Dir Wind Speed Gust Speed Precip Events Conditions
12:52 AM 37.0 °F - 34.0 °F 89% 30.06 in - Calm Calm - N/A   Unknown
1:52 AM 37.0 °F - 35.1 °F 93% 30.05 in - Calm Calm - N/A   Unknown
2:52 AM 37.9 °F - 36.0 °F 93% 30.05 in - Calm Calm - N/A   Unknown
3:52 AM 37.0 °F - 35.1 °F 93% 30.04 in - Calm Calm - N/A   Unknown
4:52 AM 37.0 °F - 35.1 °F 93% 30.04 in - Calm Calm - N/A   Unknown
5:52 AM 37.9 °F - 35.1 °F 89% 30.05 in - Calm Calm - N/A   Unknown
6:52 AM 37.9 °F 35.5 °F 35.1 °F 89% 30.06 in - NW 3.5 mph - N/A   Unknown
7:52 AM 37.9 °F - 35.1 °F 89% 30.08 in - Calm Calm - N/A   Unknown
8:52 AM 37.9 °F 35.5 °F 35.1 °F 89% 30.08 in - NNW 3.5 mph - N/A   Unknown
9:52 AM 41.0 °F - 35.1 °F 79% 30.06 in - Calm Calm - N/A   Unknown
10:52 AM 42.1 °F 40.2 °F 37.0 °F 82% 30.06 in - North 3.5 mph - N/A   Unknown
11:52 AM 46.0 °F 44.8 °F 37.9 °F 73% 30.02 in - North 3.5 mph - N/A   Unknown
12:52 PM 48.9 °F - 39.0 °F 69% 29.97 in - NNW 5.8 mph - N/A   Unknown
1:52 PM 48.9 °F - 41.0 °F 74% 29.96 in - NW 4.6 mph - N/A   Unknown
2:52 PM 48.0 °F - 42.1 °F 80% 29.94 in - NW 6.9 mph - N/A   Unknown
3:52 PM 46.9 °F - 43.0 °F 86% 29.92 in - NNW 4.6 mph - N/A   Unknown
4:52 PM 46.9 °F - 43.0 °F 86% 29.92 in - North 3.5 mph - N/A   Unknown
5:52 PM 45.0 °F - 42.1 °F 90% 29.93 in - Calm Calm - N/A   Unknown
6:52 PM 46.0 °F 44.8 °F 43.0 °F 89% 29.94 in - NNW 3.5 mph - 0.05 in   Unknown
7:52 PM 45.0 °F 43.5 °F 43.0 °F 93% 29.94 in - North 3.5 mph - N/A   Unknown
8:52 PM 46.0 °F - 44.1 °F 93% 29.92 in - Calm Calm - N/A   Unknown
9:52 PM 46.0 °F - 44.1 °F 93% 29.91 in - Calm Calm - N/A   Unknown
10:52 PM 46.0 °F - 44.1 °F 93% 29.89 in - Calm Calm - N/A   Unknown
11:52 PM 46.0 °F - 44.1 °F 93% 29.88 in - Calm Calm - N/A   Unknown